Home   Weather   Dordrecht   Past weeks

Flag for Netherlands Past Weather in Dordrecht, Netherlands — Yesterday and Last 2 Weeks

36 °F


Feels Like: 36 °F
Forecast: 33 / 52 °F
Wind: 1 mph from Northwest

Location: Rotterdam Zestienhoven Airport

Current Time: Oct 22, 2016 at 11:35:03 PM

Latest Report: Oct 22, 2016 at 10:55 PM

Visibility: 1 mi

Pressure: 29.98 "Hg

Humidity: 100%

Dew Point: 36 °F

Location of DordrechtLocation

Past Weather in Dordrecht — Graph


Dordrecht Temperature Yesterday

Maximum temperature yesterday: 57 °F (at 4:25 PM)
Minimum temperature yesterday: 34 °F (at 4:25 AM)
Average temperature yesterday: 45 °F

High & Low Weather Summary for the Past Weeks

High68 °F (Oct 16, 3:25 PM)100% (Oct 9, 12:25 AM)30.33 "Hg (Oct 9, 12:25 AM)
Low34 °F (Oct 21, 4:25 AM)48% (Oct 8, 3:25 PM)29.65 "Hg (Oct 15, 12:55 AM)
Average50 °F85%30.05 "Hg
* Reported Oct 7 9:25 PM — Oct 22 9:55 PM, Dordrecht, Weather by CustomWeather, © 2016

Note: Actual official high and low records may vary slightly from our data, if they occured in-between our weather recording intervals... More about our weather records


Dordrecht Weather History for the Previous 24 Hours

Scroll right to see more
Time TempWeatherWind HumidityBarometerVisibility
9:55 PM
Sat, Oct 22
39 °FFog.3 mph100%29.98 "Hg2 mi
9:25 PM39 °FFog.1 mph100%29.98 "Hg1 mi
8:55 PM39 °FFog.1 mph100%29.98 "Hg1 mi
8:25 PM39 °FFog.1 mph100%29.98 "Hg2 mi
7:55 PM39 °FClear.No wind100%29.98 "Hg3 mi
7:25 PM41 °FQuite cool.1 mph93%29.98 "Hg4 mi
6:55 PM45 °FClear.2 mph87%29.98 "HgN/A
6:25 PM45 °FQuite cool.5 mph81%29.98 "HgN/A
5:55 PM46 °FCool.7 mph82%29.98 "HgN/A
5:25 PM48 °FClear.5 mph76%29.98 "HgN/A
4:55 PM48 °FClear.6 mph76%29.98 "HgN/A
4:25 PM48 °FPartly sunny.7 mph76%29.98 "HgN/A
3:55 PM48 °FOvercast.6 mph82%29.98 "HgN/A
3:25 PM48 °FPartly sunny.8 mph82%29.98 "HgN/A
2:55 PM48 °FScattered clouds.7 mph76%29.98 "HgN/A
2:25 PM50 °FScattered clouds.5 mph76%29.98 "HgN/A
1:55 PM48 °FScattered clouds.8 mph82%29.98 "HgN/A
1:25 PM48 °FOvercast.5 mph87%29.98 "HgN/A
12:55 PM48 °FOvercast.6 mph82%29.98 "HgN/A
12:25 PM46 °FPartly sunny.8 mph87%29.98 "HgN/A
11:55 AM46 °FOvercast.7 mph93%29.98 "HgN/A
11:25 AM46 °FMostly cloudy.7 mph87%29.98 "HgN/A
10:55 AM46 °FLow clouds.8 mph87%29.95 "HgN/A
10:25 AM46 °FLow clouds.9 mph93%29.98 "HgN/A
9:55 AM45 °FMostly cloudy.8 mph100%29.95 "HgN/A
9:25 AM45 °FLow clouds.6 mph100%29.95 "Hg5 mi
8:55 AM43 °FLow clouds.3 mph100%29.95 "Hg4 mi
8:25 AM43 °FLow clouds.5 mph100%29.95 "HgN/A
7:55 AM39 °FFog.1 mph100%29.95 "Hg1 mi
7:25 AM41 °FFog.1 mph93%29.92 "Hg1 mi
6:55 AM41 °FFog.1 mph100%29.92 "Hg1 mi
6:25 AM41 °FFog.3 mph100%29.92 "Hg1 mi
5:55 AM41 °FFog.1 mph100%29.92 "Hg1 mi
5:25 AM43 °FClear.No wind100%29.92 "Hg1 mi
4:55 AM43 °FFog.3 mph100%29.92 "Hg3 mi
4:25 AM46 °FClear.3 mph93%29.92 "HgN/A
3:55 AM48 °FPassing clouds.2 mph94%29.95 "HgN/A
3:25 AM48 °FPassing clouds.5 mph94%29.95 "HgN/A
2:55 AM48 °FClear.3 mph94%29.95 "HgN/A
1:55 AM48 °FPassing clouds.6 mph94%29.95 "HgN/A
1:25 AM48 °FPassing clouds.5 mph94%29.95 "HgN/A
12:55 AM48 °FPassing clouds.3 mph94%29.95 "HgN/A
12:25 AM48 °FPartly cloudy.6 mph94%29.95 "HgN/A
11:55 PM
Fri, Oct 21
46 °FPassing clouds.5 mph100%29.98 "HgN/A
11:25 PM48 °FPassing clouds.3 mph94%29.98 "HgN/A
Weather by CustomWeather, © 2016

See weather overviewHow to use our weather pages